IZ0QWM-13 Scandriglia IT current weather conditions

sailwx.info

Wind from 048

Air temperature 19.4° C
Dewpoint 12.7° C

Last reported at 2016-May-27 19:43 UTC.
Time now 2016-May-27 20:12 UTC

Location: N 42°10' E 012°47'.
View on Google Maps.

See reports from other nearby stations

  
Tides and Currents Weather Stations Pressure Air Temp Water Temp Dewpoint Dewpoint Depression Visibility Wind Speed Wind Dir Waves Ship Positions
date/time (UTC)wind fromknots sea level pressurealtimeterstation pressurevisibilityair tempwater tempwave heightnotes
2016-May-27 19:43 048 19.4
2016-May-27 19:33 048 20.0
2016-May-27 19:23 048 20.6
2016-May-27 19:13 048 20.6
2016-May-27 19:03 025 21.1
2016-May-27 18:53 069 21.1
2016-May-27 18:43 044 22.2
2016-May-27 18:33 273 23.3
2016-May-27 18:23 273 24.4
2016-May-27 18:13 273 24.4
2016-May-27 18:03 273 26.1
2016-May-27 17:53 273 26.7
2016-May-27 17:43 273 27.2
2016-May-27 17:33 273 27.2
2016-May-27 17:23 273 26.7
2016-May-27 17:13 273 27.2
2016-May-27 17:03 273 27.8
2016-May-27 16:53 273 27.8
2016-May-27 16:43 198 27.8
2016-May-27 16:33 198 27.2
2016-May-27 16:23 198 27.2
2016-May-27 16:13 198 27.2
2016-May-27 16:03 226 27.2
2016-May-27 15:53 359 27.2
2016-May-27 15:43 018 27.8
2016-May-27 15:33 233 28.3
2016-May-27 15:23 233 28.3
2016-May-27 15:13 233 28.3
2016-May-27 15:03 222 27.8
2016-May-27 14:53 222 27.2
2016-May-27 14:43 222 27.2
2016-May-27 14:33 222 27.2
2016-May-27 14:23 359 27.2
2016-May-27 14:13 359 27.8
2016-May-27 14:03 359 27.8
2016-May-27 13:53 302 2 gusting 13 27.2
2016-May-27 13:43 212 3 gusting 13 27.2
2016-May-27 13:33 204 27.2
2016-May-27 13:23 359 27.2
2016-May-27 13:13 333 27.2
2016-May-27 13:03 276 27.2
2016-May-27 12:53 314 26.7
2016-May-27 12:43 011 26.7
2016-May-27 12:33 065 27.2
2016-May-27 12:23 359 26.7
2016-May-27 12:13 298 26.7
2016-May-27 12:03 294 6 gusting 13 27.2
2016-May-27 11:53 248 3 gusting 13 27.2
2016-May-27 11:43 224 5 gusting 8 26.1
2016-May-27 11:33 264 26.1
2016-May-27 11:23 174 26.1
2016-May-27 11:13 205 26.1
2016-May-27 11:03 301 25.6
2016-May-27 10:53 359 25.6
2016-May-27 10:43 359 25.0
2016-May-27 10:33 201 25.0
2016-May-27 10:23 201 25.0
2016-May-27 10:13 201 25.0
2016-May-27 10:03 201 25.0
2016-May-27 09:53 359 24.4
2016-May-27 09:43 301 24.4
2016-May-27 09:33 072 24.4
2016-May-27 09:23 072 24.4
2016-May-27 09:13 072 24.4
2016-May-27 09:03 072 24.4
2016-May-27 08:53 072 24.4
2016-May-27 08:43 072 24.4
2016-May-27 08:33 072 23.9
2016-May-27 08:23 072 23.9
2016-May-27 08:13 072 23.3
2016-May-27 08:03 072 22.8
2016-May-27 07:53 072 22.2
2016-May-27 07:43 072 21.7
2016-May-27 07:33 072 21.1
2016-May-27 07:23 072 21.1
2016-May-27 07:13 072 20.0
2016-May-27 07:03 072 20.0
2016-May-27 06:53 072 18.9
2016-May-27 06:43 072 18.3
2016-May-27 06:33 072 18.3
2016-May-27 06:23 072 17.8
2016-May-27 06:13 072 17.8
2016-May-27 06:03 072 17.2
2016-May-27 05:53 072 16.7
2016-May-27 05:43 072 16.1
2016-May-27 05:33 072 15.6
2016-May-27 05:23 072 15.0
2016-May-27 05:13 072 14.4
2016-May-27 05:03 072 14.4
2016-May-27 04:53 068 15.0
2016-May-27 04:43 062 15.6
2016-May-27 04:33 062 15.0
2016-May-27 04:23 096 13.9
2016-May-27 04:13 096 13.3
2016-May-27 04:03 065 13.3
2016-May-27 03:53 080 14.4
2016-May-27 03:43 080 14.4
2016-May-27 03:33 091 15.0
2016-May-27 03:23 068 14.4
2016-May-27 03:13 087 13.9
2016-May-27 03:03 089 13.9
2016-May-27 02:53 077 13.9
2016-May-27 02:43 087 13.9
2016-May-27 02:33 087 13.9
2016-May-27 02:23 087 13.9
2016-May-27 02:13 087 14.4
2016-May-27 02:03 087 14.4
2016-May-27 01:53 087 14.4
2016-May-27 01:43 066 15.0
2016-May-27 01:33 072 15.6
2016-May-27 01:23 072 15.0
2016-May-27 01:13 087 15.0
2016-May-27 01:03 090 15.6
2016-May-27 00:53 090 15.0
2016-May-27 00:43 090 13.9
2016-May-27 00:33 110 13.9
2016-May-27 00:23 110 14.4
2016-May-27 00:13 110 14.4
2016-May-27 00:03 110 14.4
2016-May-26 23:53 066 2 gusting 4 13.9
2016-May-26 23:43 053 13.9
2016-May-26 23:33 090 13.9
2016-May-26 23:23 090 13.3
2016-May-26 23:13 090 13.3
2016-May-26 23:03 073 13.9
2016-May-26 22:53 073 13.9
2016-May-26 22:43 103 13.9
2016-May-26 22:33 103 13.9
2016-May-26 22:23 103 14.4
2016-May-26 22:13 103 14.4
2016-May-26 22:03 103 14.4
2016-May-26 21:53 103 15.0
2016-May-26 21:43 035 15.6
2016-May-26 21:33 035 15.6
2016-May-26 21:23 035 15.6
2016-May-26 21:13 035 15.6
2016-May-26 21:03 035 15.6
2016-May-26 20:53 035 15.6
2016-May-26 20:43 035 16.1
2016-May-26 20:33 224 16.7
2016-May-26 20:23 224 16.7
2016-May-26 20:13 224 17.2
2016-May-26 20:03 224 17.8
2016-May-26 19:53 224 17.8
2016-May-26 19:43 224 17.8
2016-May-26 19:33 198 18.3
2016-May-26 19:23 198 18.3
2016-May-26 19:13 198 18.3
2016-May-26 19:03 200 18.9
2016-May-26 18:53 200 18.9
2016-May-26 18:43 200 18.9
2016-May-26 18:33 179 19.4
2016-May-26 18:23 198 19.4
2016-May-26 18:13 191 20.0
2016-May-26 18:03 181 20.6
2016-May-26 17:53 146 2 gusting 7 21.1
2016-May-26 17:43 228 21.1
2016-May-26 17:33 228 21.7
2016-May-26 17:23 228 22.2
2016-May-26 17:13 236 22.8
2016-May-26 17:03 177 23.3
2016-May-26 16:53 233 3 gusting 7 23.3
2016-May-26 16:43 239 3 gusting 7 23.9
2016-May-26 16:33 210 25.0
2016-May-26 16:23 187 3 gusting 7 24.4
2016-May-26 16:13 197 6 gusting 7 24.4
2016-May-26 16:03 165 5 gusting 6 25.0
2016-May-26 15:53 030 22.8
2016-May-26 15:43 359 25.0
2016-May-26 15:33 359 25.0
2016-May-26 15:23 359 25.0
2016-May-26 15:13 359 25.0
2016-May-26 15:03 359 25.6
2016-May-26 14:53 359 25.6
2016-May-26 14:43 359 25.6
2016-May-26 14:33 359 26.1
2016-May-26 14:23 359 25.6
2016-May-26 14:13 350 26.1
2016-May-26 14:03 350 25.6
2016-May-26 13:53 350 25.6
2016-May-26 13:43 350 25.6
2016-May-26 13:33 359 25.0
2016-May-26 13:23 359 25.0
2016-May-26 13:13 359 25.0
2016-May-26 13:03 359 25.0
2016-May-26 12:53 359 24.4
2016-May-26 12:43 359 24.4
2016-May-26 12:33 236 24.4
2016-May-26 12:23 236 24.4
2016-May-26 12:13 236 24.4
2016-May-26 12:03 211 24.4
2016-May-26 11:53 211 23.9
2016-May-26 11:43 211 23.9
2016-May-26 11:33 211 23.9
2016-May-26 11:23 359 23.9
2016-May-26 11:13 359 23.3
2016-May-26 11:03 359 23.3
2016-May-26 10:53 359 22.8
2016-May-26 10:43 359 0 gusting 6 22.2
2016-May-26 10:33 359 21.7
2016-May-26 10:23 359 21.7
2016-May-26 10:13 156 21.7
2016-May-26 10:03 359 1 gusting 6 21.7
2016-May-26 09:53 222 21.1
2016-May-26 09:43 249 21.7
2016-May-26 09:33 219 21.1
2016-May-26 09:23 207 2 gusting 6 21.1
2016-May-26 09:13 020 21.1
2016-May-26 09:03 218 2 gusting 6 21.1
2016-May-26 08:53 217 21.1
2016-May-26 08:43 060 21.7
2016-May-26 08:33 060 21.7
2016-May-26 08:23 060 21.1
2016-May-26 08:13 060 21.1
2016-May-26 08:03 060 20.6
2016-May-26 07:53 060 20.0
2016-May-26 07:43 060 19.4
2016-May-26 07:33 060 18.9
2016-May-26 07:23 060 18.9
2016-May-26 07:13 060 18.3
2016-May-26 07:02 060 18.3
2016-May-26 06:52 060 17.2
2016-May-26 06:42 060 16.7
2016-May-26 06:32 060 16.1
2016-May-26 06:22 060 15.6
2016-May-26 06:12 060 15.0
2016-May-26 06:02 060 13.9
2016-May-26 05:52 060 13.3
2016-May-26 05:42 060 12.8
2016-May-26 05:32 060 12.2
2016-May-26 05:22 060 12.2
2016-May-26 05:12 060 11.7
2016-May-26 05:02 060 11.1
2016-May-26 04:52 060 11.1
2016-May-26 04:42 063 11.1
2016-May-26 04:32 100 11.1
2016-May-26 04:22 100 11.1
2016-May-26 04:12 100 11.1
2016-May-26 04:02 100 11.1
2016-May-26 03:52 100 11.7
2016-May-26 03:42 100 11.1
2016-May-26 03:32 100 11.7
2016-May-26 03:22 100 11.1
2016-May-26 03:12 100 11.1
2016-May-26 03:02 100 11.1
2016-May-26 02:52 100 11.1
2016-May-26 02:42 100 11.1
2016-May-26 02:32 100 10.6
2016-May-26 02:22 100 11.1
2016-May-26 02:12 100 11.1
2016-May-26 02:02 100 11.1
2016-May-26 01:52 100 12.2
2016-May-26 01:42 100 11.1
2016-May-26 01:32 100 11.1
2016-May-26 01:22 100 11.1
2016-May-26 01:12 055 11.1
2016-May-26 01:02 055 11.1
2016-May-26 00:52 055 11.7
2016-May-26 00:42 055 11.7
2016-May-26 00:32 055 11.7
2016-May-26 00:22 055 11.7
2016-May-26 00:12 055 11.7
2016-May-26 00:02 058 12.2
2016-May-25 23:52 058 12.8
2016-May-25 23:42 058 12.2
2016-May-25 23:32 058 12.2
2016-May-25 23:22 084 12.8
2016-May-25 23:12 084 12.8
2016-May-25 23:02 084 13.3
2016-May-25 22:52 084 13.3
2016-May-25 22:42 084 12.8
2016-May-25 22:32 084 13.3
2016-May-25 22:22 184 13.9
2016-May-25 22:12 184 13.9
2016-May-25 22:02 184 14.4
2016-May-25 21:52 184 14.4
2016-May-25 21:42 184 14.4
2016-May-25 21:32 184 15.0
2016-May-25 21:22 184 15.0
2016-May-25 21:12 184 15.0
2016-May-25 21:02 184 15.6
2016-May-25 20:52 184 15.6
2016-May-25 20:42 184 15.6
2016-May-25 20:32 184 16.1
2016-May-25 20:22 184 16.7
2016-May-25 20:12 184 16.7
2016-May-25 20:02 197 16.7